Location: La Comballaz
(46.3780°N, 7.0817°E)
Time: 10:52:54
(UTC+00:00)

NANOSAT C BR1 - Visible Passes

Search period start: 20 April 2024 00:00
Search period end: 30 April 2024 00:00
Orbit: 556 x 567 km, 98.1° (Epoch: 19 April)

Date Brightness Start Highest point End Pass type
(mag) Time Alt. Az. Time Alt. Az. Time Alt. Az.
20 Apr ? 02:20:49 10° NE 02:23:17 16° E 02:25:46 10° SE visible
20 Apr ? 03:54:34 10° N 03:58:29 49° WNW 04:02:22 10° SW visible
21 Apr ? 02:20:03 10° NE 02:22:28 15° E 02:24:53 10° SE visible
21 Apr ? 03:53:45 10° N 03:57:40 50° WNW 04:01:34 10° SSW visible
22 Apr ? 02:19:14 10° NE 02:21:35 15° E 02:23:56 10° SE visible
22 Apr ? 03:52:52 10° N 03:56:48 51° WNW 04:00:42 10° SSW visible
23 Apr ? 02:18:23 10° ENE 02:20:39 15° E 02:22:55 10° SE visible
23 Apr ? 03:51:56 10° N 03:55:52 53° WNW 03:59:47 10° SSW visible
24 Apr ? 02:17:28 10° ENE 02:19:39 14° E 02:21:50 10° ESE visible
24 Apr ? 03:50:56 10° N 03:54:53 54° WNW 03:58:49 10° SSW visible
25 Apr ? 02:16:31 10° ENE 02:18:36 14° E 02:20:41 10° ESE visible
25 Apr ? 03:49:53 10° N 03:53:51 56° WNW 03:57:47 10° SSW visible
26 Apr ? 02:15:30 10° ENE 02:17:29 13° E 02:19:27 10° ESE visible
26 Apr ? 03:48:46 10° N 03:52:44 58° WNW 03:56:42 10° SSW visible
27 Apr ? 02:14:27 10° ENE 02:16:18 13° E 02:18:09 10° ESE visible
27 Apr ? 03:47:35 10° N 03:51:34 60° WNW 03:55:32 10° SSW visible
28 Apr ? 02:13:21 10° ENE 02:15:05 12° E 02:16:46 10° ESE visible
28 Apr ? 03:46:22 10° N 03:50:22 63° WNW 03:54:20 10° SSW visible
29 Apr ? 02:12:14 10° ENE 02:13:46 12° E 02:15:19 10° ESE visible
29 Apr ? 03:45:04 10° N 03:49:05 65° WNW 03:53:04 10° SSW visible
